Location: B�rgermoos
(47.6500°N, 9.0667°E)
Time: 06:06:22
(UTC+00:00)

Resurs 1-3 - Pass Details

Date: 18 September 2020
Orbit: 630 x 632 km, 97.9° (Epoch: 22 October)

Event Time Altitude Azimuth Distance (km) Brightness Sun altitude
Exits shadow 20:01:15 43° 219° (SW) 895 4.3 -25.0°
Maximum altitude 20:02:12 51° 260° (W) 796 4.3 -25.1°
Drops below altitude 10° 20:06:30 10° 337° (NNW) 2,024 6.9 -25.7°
Sets 20:08:46 0° 343° (NNW) 2,937 7.8 -26.0°
